Location: Cedar Brake
(32.2526°N, 97.8459°W)
Time: 07:51:27
(UTC+00:00)

Cosmos 1656 Rocket - Pass Details

Date: 22 April 2026
Orbit: 794 x 843 km, 71.1° (Epoch: 15 May)

Event Time Altitude Azimuth Distance (km) Brightness Sun altitude
Rises 02:35:12 0° 349° (N) 3,324 7.4 -18.5°
Reaches altitude 10° 02:37:48 10° 358° (N) 2,397 6.4 -19.0°
Maximum altitude 02:42:51 37° 65° (ENE) 1,257 4.3 -19.9°
Enters shadow 02:43:51 34° 88° (E) 1,322 4.3 -20.1°
